Temperature
24 23 23 22 22 21 21 21 20 20 19 19 19 19 19 19 18 18 18 18 18 18 17 18 18 17 17 17 17 17 17 17 17 17 17 17 17 17 17 17 17 17 17
23 23 23 22 22 22 21 21 20 20 20 19 19 19 19 19 19 18 18 18 18 18 18 18 18 18 17 17 17 17 17 17 17 17 17 17 17 17 17 17 17 17 17
24 24 23 23 22 22 22 21 21 20 20 20 19 19 19 19 18 18 18 18 18 18 18 18 18 18 18 18 17 17 17 17 17 17 17 17 17 17 17 17 17 17 17
24 24 24 23 23 23 22 21 21 21 20 20 19 19 19 19 19 19 18 18 18 18 18 18 18 18 18 18 17 17 17 17 17 17 17 17 17 17 16 17 17 17 17
25 25 24 24 23 23 22 22 21 21 20 20 19 19 19 19 19 19 18 18 18 18 18 18 18 18 18 18 18 17 17 17 17 17 17 17 17 17 16 16 17 17 17
25 25 24 24 23 23 22 22 21 21 21 20 20 19 19 19 19 19 19 18 18 18 18 18 18 18 18 18 18 17 17 17 17 17 17 17 17 17 17 16 16 16 17
25 25 24 24 24 23 23 22 22 21 21 20 20 20 19 19 19 19 19 18 18 18 18 18 18 18 18 18 17 17 17 17 17 17 17 17 17 17 16 16 16 16 16
25 25 25 24 24 24 23 23 22 22 21 21 20 20 20 20 19 19 19 19 19 19 18 18 18 18 18 17 17 17 17 17 17 17 17 17 17 16 16 16 16 16 16
25 25 24 24 24 24 23 23 23 22 22 21 21 20 20 20 20 19 19 19 19 19 18 18 18 18 18 18 17 17 17 17 17 17 17 16 16 16 16 16 16 16 15
25 25 24 24 24 24 23 23 22 22 22 21 21 21 20 20 20 19 19 19 19 19 18 18 18 18 18 17 17 17 17 17 17 17 17 16 16 16 16 16 16 15 15
25 25 25 24 24 24 23 23 22 22 22 21 21 21 20 20 20 19 19 19 19 19 18 18 18 18 17 17 17 17 17 17 17 17 16 16 16 16 16 16 16 15 15
25 25 25 24 24 24 23 23 23 22 22 21 21 21 20 20 20 20 19 19 19 19 18 18 18 18 17 17 17 17 17 17 17 17 16 16 16 16 16 16 15 15 15
25 25 24 24 24 24 23 23 23 22 22 21 21 21 20 20 20 20 19 19 19 19 18 18 18 18 17 17 17 17 17 17 17 16 16 16 16 16 16 16 15 15 15
24 24 24 24 24 23 23 23 22 22 22 21 21 21 21 20 20 20 19 19 19 19 18 18 18 18 17 17 17 17 17 17 17 16 16 16 16 16 16 15 15 15 15
23 23 23 23 23 23 23 22 22 22 22 21 21 21 20 20 20 20 19 19 19 18 18 18 18 18 17 17 17 17 16 16 16 16 16 16 16 16 15 15 15 15 14
22 22 23 22 22 22 22 22 22 22 22 21 21 21 20 20 20 19 19 19 19 18 18 18 18 18 17 17 17 17 16 16 16 16 16 16 15 15 15 15 15 14 14
22 22 22 22 22 22 22 22 22 22 22 21 21 21 20 20 19 19 19 19 19 18 18 18 17 17 17 17 16 16 16 16 16 16 15 15 15 15 15 15 14 14 14
21 22 22 22 22 22 22 22 22 22 21 21 21 20 20 20 19 19 19 18 18 18 18 18 17 17 17 17 16 16 16 16 16 15 15 15 15 15 14 14 14 14 14
21 21 22 22 22 22 22 21 21 21 21 21 20 20 20 19 19 18 18 18 18 18 17 17 17 17 17 16 16 16 16 16 15 15 15 15 15 14 14 14 14 13 13
21 21 21 22 21 22 22 21 21 21 20 20 20 20 19 19 18 18 18 18 17 17 17 17 17 16 16 16 16 15 15 15 15 15 15 14 14 14 14 13 13 13 13
20 20 20 21 21 21 21 21 20 20 20 20 19 19 19 18 18 18 17 17 17 16 16 16 16 16 16 16 15 15 15 15 14 14 14 14 14 13 13 13 13 12 12
19 19 20 20 20 20 20 20 20 19 19 19 19 18 18 18 18 17 17 17 16 16 16 16 16 16 15 15 15 15 14 14 14 14 14 14 13 13 13 12 12 12 12
18 19 19 19 19 19 19 19 19 19 18 18 18 18 18 17 17 17 16 16 16 16 16 15 15 15 15 15 15 14 14 14 14 14 13 13 13 12 12 12 12 12 11
18 18 18 18 18 18 18 17 18 18 18 18 18 18 18 17 17 16 16 16 15 15 15 15 15 15 14 14 14 14 14 13 13 13 13 12 12 12 12 11 11 11 11
17 17 17 17 17 17 17 17 17 17 17 17 17 17 17 17 16 16 15 15 15 15 15 15 15 14 14 14 14 14 13 13 13 13 12 12 12 12 11 11 11 11 10
16 16 16 16 16 16 16 16 16 16 16 16 16 16 16 16 15 15 15 15 15 14 14 14 14 14 14 14 14 13 13 13 13 12 12 12 12 11 11 11 11 10 10
Wind_Speed
8 7 8 9 9 8 8 8 7 7 6 4 3 3 2 2 2 3 4 6 6 6 5 3 3 3 3 3 3 2 2 1 2 1 1 2 1 1 1 2 2 3 4
7 8 9 9 10 10 9 8 8 8 7 5 4 3 2 2 2 2 2 5 6 6 5 4 4 4 3 3 3 3 2 2 2 2 1 1 2 1 1 1 2 3 3
12 11 11 10 10 11 11 10 9 8 8 6 4 3 2 2 1 2 2 3 5 6 5 5 5 4 4 4 4 5 4 3 2 2 3 2 2 1 1 1 1 2 2
10 10 11 11 12 12 10 9 9 8 7 7 6 6 5 4 4 3 3 2 4 5 5 5 5 5 4 4 5 4 4 4 3 2 2 2 3 2 1 1 1 2 2
12 12 13 12 10 9 9 8 8 7 7 8 8 7 5 4 2 2 3 3 2 3 5 5 5 4 4 5 5 4 4 4 4 3 2 2 2 2 2 3 2 1 2
11 10 9 8 8 8 8 8 8 7 7 8 8 8 7 5 4 4 3 3 2 2 3 4 4 4 4 5 5 5 5 4 4 4 3 3 3 3 3 3 3 3 2
10 10 10 10 10 10 9 9 9 8 7 8 7 7 7 7 7 5 4 3 2 2 3 3 3 3 4 4 4 4 4 4 5 5 4 4 4 3 3 3 2 2 1
9 10 11 11 11 11 10 10 10 8 8 8 7 6 6 5 5 5 5 5 4 4 3 4 4 4 4 4 4 3 4 4 4 5 4 4 4 4 4 3 3 2 2
9 9 9 9 10 10 11 11 10 9 8 8 7 6 7 6 6 5 4 4 3 3 4 4 4 4 3 4 4 3 3 3 3 4 4 4 3 3 4 4 4 4 3
7 7 8 9 9 9 9 9 9 9 8 8 7 7 7 7 6 5 6 5 5 4 4 4 4 4 3 3 3 3 3 3 3 2 3 3 2 2 3 3 3 4 4
8 8 7 7 8 7 8 8 9 8 7 8 7 6 6 6 6 6 6 6 5 5 5 5 4 4 3 3 3 3 3 3 2 2 2 2 1 1 2 2 3 3 3
7 7 7 7 7 8 8 9 9 9 8 8 7 7 6 6 6 6 6 5 5 5 5 4 4 4 3 3 3 3 3 3 3 2 2 1 1 1 1 2 2 2 3
5 5 6 7 7 7 7 7 7 8 7 7 7 7 7 7 7 6 5 5 5 4 4 4 4 4 3 3 3 3 3 3 3 3 3 2 2 2 1 2 2 2 2
4 5 5 5 6 6 6 6 6 6 6 7 7 8 8 8 7 6 5 5 5 4 4 4 4 3 4 3 3 3 3 3 3 3 3 3 3 3 2 2 2 2 2
3 4 5 4 5 5 5 5 5 5 6 6 7 7 6 6 5 5 5 4 4 4 4 3 3 3 3 3 4 4 4 3 3 3 2 2 3 3 3 2 2 3 3
2 3 4 4 4 5 5 5 6 6 7 6 6 4 4 5 6 6 6 5 5 4 4 4 3 3 2 3 5 4 4 4 4 3 2 2 2 2 3 3 4 4 4
2 3 3 4 4 4 4 5 5 5 6 6 5 4 5 5 6 6 6 6 5 5 4 4 4 3 3 4 5 4 3 3 3 3 2 2 1 1 2 3 3 3 3
1 1 1 2 2 2 2 2 3 5 5 5 5 5 5 5 5 5 6 5 4 5 5 4 4 4 4 5 5 5 3 3 3 3 3 3 2 2 3 3 3 2 2
2 2 2 1 1 2 2 3 3 4 4 4 5 6 6 5 5 5 6 5 5 4 4 4 5 5 5 6 6 5 3 2 1 1 2 2 2 3 5 4 3 2 1
2 1 1 2 1 1 3 4 3 3 3 4 4 5 6 6 5 5 4 3 4 5 4 4 4 5 4 5 6 6 3 3 2 1 1 2 2 3 5 4 3 2 1
2 2 3 2 0 1 3 4 3 3 3 2 3 3 5 6 6 5 3 3 3 3 4 4 3 3 3 4 5 6 4 4 3 2 2 1 3 4 4 4 3 3 2
2 2 2 2 2 1 2 3 2 2 1 2 3 3 3 4 4 5 4 4 4 3 2 2 2 2 2 3 4 6 6 5 4 3 2 2 4 3 3 3 3 4 3
1 1 2 3 2 1 1 2 2 0 1 2 2 2 3 3 3 4 5 4 4 4 4 3 3 3 2 3 5 6 6 6 4 3 3 4 4 3 2 2 3 3 3
1 1 2 2 2 2 1 2 1 0 2 2 1 1 2 2 2 2 3 4 4 5 4 4 4 3 3 3 3 3 4 4 4 3 3 5 4 3 2 2 2 2 2
2 1 1 1 1 2 2 2 2 0 1 1 1 1 2 2 1 0 1 2 3 5 5 5 5 5 4 4 5 5 4 4 4 4 3 2 2 2 1 1 1 1 2
2 1 1 1 1 0 1 2 1 0 1 0 1 1 1 1 1 1 1 4 0 1 2 4 4 3 4 4 5 5 5 6 8 5 3 2 2 2 2 2 1 1 2
Wind_Direction
207 186 184 177 172 175 179 184 182 176 162 157 163 164 187 190 197 211 215 207 201 196 187 191 183 180 185 192 176 162 162 174 149 113 14 354 350 283 251 235 228 229 225
191 186 183 179 182 186 188 188 190 184 181 180 172 167 162 178 194 211 216 214 203 200 198 189 191 189 185 184 181 167 163 186 173 152 124 331 338 359 310 252 231 232 223
199 191 187 187 187 193 194 195 194 190 187 176 146 121 98 87 145 213 221 221 208 205 199 192 190 191 187 196 197 184 179 194 202 181 164 176 231 285 318 287 251 238 231
198 190 188 190 196 200 194 192 189 188 186 173 172 172 178 191 207 201 209 225 216 208 205 198 194 196 195 201 207 197 191 183 205 204 207 199 177 186 270 298 274 256 246
195 192 192 194 197 191 187 187 182 184 183 181 183 184 192 196 191 183 200 223 228 216 210 202 196 203 206 207 205 198 197 195 200 199 193 196 194 194 205 255 271 278 256
194 191 186 179 183 179 180 180 179 188 185 186 186 190 194 190 188 197 205 222 228 226 214 208 202 203 207 212 211 207 205 206 206 205 198 191 189 198 198 226 251 266 270
184 181 178 179 182 181 183 182 182 191 189 188 193 195 196 192 198 202 203 209 219 222 220 213 210 209 213 211 204 208 216 214 211 211 215 213 216 196 189 203 229 247 266
183 186 187 184 184 184 183 183 186 192 188 190 197 196 193 194 201 199 199 207 215 220 214 206 211 213 209 207 199 210 218 216 217 220 215 218 222 208 197 190 189 223 241
183 186 184 183 184 185 187 187 187 191 191 193 192 194 195 198 202 198 198 208 214 217 205 201 206 215 209 198 192 207 217 215 217 219 219 223 228 217 213 202 197 200 224
178 183 182 183 186 187 186 181 185 194 196 193 194 200 200 203 201 193 203 209 212 209 200 204 204 208 209 201 195 200 207 204 219 221 220 222 222 215 212 210 212 211 210
181 182 182 182 180 176 177 181 188 192 196 198 198 197 199 200 197 201 210 210 208 201 200 204 199 204 212 208 197 207 197 195 207 209 201 206 190 202 206 202 201 202 195
179 172 171 167 168 175 183 188 192 196 201 198 193 198 199 196 201 210 212 204 205 203 200 196 196 205 208 199 194 198 191 191 199 205 189 205 197 203 209 201 202 198 190
166 159 162 170 177 183 186 192 196 202 199 189 190 195 199 201 207 211 208 201 201 196 189 187 195 199 195 191 193 191 193 196 198 197 194 201 185 209 216 204 197 190 182
156 158 169 178 181 183 183 190 196 194 190 189 195 202 204 206 208 205 201 198 193 189 187 187 190 192 191 193 195 196 195 196 198 197 198 200 202 209 207 200 196 182 169
155 166 171 178 179 182 181 183 190 186 183 185 197 210 208 201 198 196 193 189 187 191 184 176 180 183 188 199 199 201 197 195 196 201 210 218 214 197 189 187 185 171 164
176 185 176 178 179 182 185 185 193 189 178 185 202 202 197 202 198 195 188 183 188 184 173 183 189 189 204 209 197 192 194 197 200 206 215 226 224 204 180 170 160 158 169
193 201 197 195 194 192 182 183 191 176 172 180 193 196 199 205 203 197 186 186 188 183 180 189 193 202 215 208 204 195 187 197 207 209 211 221 203 154 136 134 129 126 148
246 250 225 198 196 182 166 164 148 154 165 172 181 188 195 203 192 186 192 185 184 184 191 195 196 203 215 203 202 190 176 188 201 203 204 197 183 161 146 134 119 105 96
256 237 228 211 135 132 143 137 142 157 163 175 189 193 191 192 188 195 199 189 187 190 190 187 191 201 210 201 195 181 172 177 182 175 179 178 177 169 151 141 139 130 97
19 20 41 66 86 111 136 141 153 161 181 194 199 192 182 181 187 200 203 191 189 200 194 191 192 197 206 198 189 184 175 180 185 172 164 172 183 172 158 158 159 167 192
49 54 50 62 19 100 127 139 157 191 202 182 171 173 178 186 182 176 179 176 183 195 196 196 201 201 206 203 196 191 190 193 191 195 187 172 168 170 167 164 172 184 161
57 63 53 32 19 52 124 132 182 232 165 148 150 158 172 180 173 167 168 171 182 190 205 214 228 230 222 208 204 199 199 188 188 198 188 169 159 159 160 158 155 147 136
56 84 76 38 15 344 153 179 228 201 129 138 145 150 157 162 161 174 178 181 192 197 206 211 230 242 234 223 210 199 195 189 190 188 169 158 151 144 134 151 156 150 148
318 67 68 39 336 326 334 283 276 149 127 135 145 131 129 140 160 183 188 196 202 206 208 210 223 232 226 225 209 195 184 177 179 167 140 133 129 126 121 120 136 154 169
317 19 49 303 293 336 360 344 331 113 125 121 103 100 124 143 161 192 250 222 226 217 210 214 210 209 221 219 205 189 185 181 168 145 132 132 137 136 134 138 151 164 165
311 300 274 267 274 298 345 331 332 30 144 122 63 91 120 122 133 131 50 39 47 180 179 194 199 211 204 177 167 173 170 155 147 138 151 163 171 183 193 197 202 198 202
Height
1518 1521 1524 1526 1529 1531 1533 1535 1537 1539 1540 1542 1543 1544 1545 1547 1548 1549 1550 1551 1552 1553 1553 1554 1555 1556 1557 1558 1559 1560 1560 1561 1561 1562 1562 1562 1562 1561 1561 1562 1562 1562 1563
1516 1519 1522 1524 1526 1529 1531 1533 1535 1537 1539 1541 1542 1544 1545 1546 1547 1548 1549 1550 1551 1552 1552 1553 1554 1555 1556 1556 1557 1558 1559 1559 1560 1560 1560 1560 1560 1559 1559 1560 1560 1560 1560
1512 1515 1518 1521 1524 1527 1529 1531 1534 1536 1538 1540 1541 1542 1544 1545 1546 1547 1548 1549 1550 1550 1551 1552 1553 1553 1554 1555 1556 1556 1557 1557 1558 1558 1559 1559 1558 1558 1558 1558 1558 1558 1558
1509 1512 1515 1518 1521 1524 1527 1530 1532 1534 1536 1538 1540 1541 1542 1543 1544 1546 1547 1548 1548 1549 1550 1550 1551 1552 1553 1553 1554 1554 1555 1555 1555 1556 1556 1557 1557 1557 1556 1556 1556 1556 1556
1505 1508 1512 1515 1519 1522 1525 1528 1530 1532 1534 1536 1538 1539 1540 1542 1543 1544 1545 1546 1547 1547 1548 1549 1550 1550 1550 1551 1551 1552 1552 1553 1553 1553 1553 1554 1554 1554 1554 1553 1553 1553 1553
1502 1505 1509 1513 1517 1520 1523 1525 1527 1530 1532 1534 1535 1537 1538 1540 1541 1542 1543 1544 1545 1546 1546 1547 1548 1548 1548 1549 1549 1549 1550 1550 1550 1550 1551 1551 1551 1551 1551 1551 1550 1550 1550
1499 1502 1506 1509 1513 1516 1520 1522 1525 1527 1529 1531 1533 1534 1536 1538 1539 1540 1541 1542 1543 1544 1544 1545 1546 1546 1546 1546 1547 1547 1547 1547 1547 1547 1548 1548 1548 1548 1548 1548 1548 1547 1547
1496 1499 1503 1506 1510 1514 1517 1520 1522 1524 1527 1529 1531 1533 1534 1535 1537 1538 1539 1540 1541 1541 1542 1543 1543 1544 1544 1544 1544 1544 1544 1544 1545 1545 1545 1545 1545 1545 1545 1545 1545 1544 1544
1494 1497 1500 1504 1508 1511 1514 1517 1520 1522 1525 1527 1529 1530 1532 1533 1534 1536 1537 1538 1539 1540 1540 1541 1541 1541 1541 1541 1542 1541 1542 1542 1542 1542 1541 1541 1541 1541 1541 1541 1542 1542 1541
1492 1495 1498 1502 1505 1509 1512 1515 1518 1520 1523 1525 1526 1528 1530 1531 1533 1534 1534 1536 1537 1537 1538 1538 1539 1539 1539 1539 1539 1539 1539 1539 1538 1538 1538 1537 1537 1537 1538 1538 1538 1538 1539
1490 1493 1496 1500 1503 1507 1510 1513 1516 1518 1520 1522 1524 1526 1527 1529 1530 1531 1532 1533 1534 1535 1535 1536 1536 1536 1537 1536 1536 1536 1536 1536 1536 1535 1535 1535 1534 1534 1534 1534 1534 1534 1535
1489 1492 1495 1498 1502 1504 1507 1511 1513 1515 1518 1520 1521 1523 1525 1526 1528 1529 1530 1531 1532 1532 1533 1533 1534 1534 1534 1534 1534 1533 1533 1533 1533 1532 1532 1532 1532 1531 1531 1531 1531 1531 1531
1488 1491 1494 1497 1499 1502 1505 1508 1511 1513 1515 1517 1519 1520 1522 1523 1525 1526 1528 1529 1529 1529 1530 1530 1531 1531 1531 1531 1531 1531 1531 1530 1530 1530 1529 1529 1529 1529 1528 1528 1527 1527 1528
1487 1489 1491 1494 1497 1500 1502 1505 1507 1510 1512 1514 1516 1517 1519 1520 1522 1523 1525 1526 1526 1527 1527 1528 1528 1528 1528 1528 1528 1528 1528 1528 1528 1527 1527 1527 1527 1526 1526 1525 1525 1525 1525
1486 1488 1489 1492 1494 1498 1500 1502 1504 1507 1509 1511 1513 1514 1516 1517 1519 1520 1521 1523 1524 1524 1525 1525 1525 1525 1525 1525 1525 1526 1526 1525 1525 1525 1525 1525 1524 1524 1524 1523 1523 1523 1523
1486 1487 1488 1490 1492 1495 1497 1499 1501 1503 1505 1508 1510 1512 1513 1514 1515 1517 1518 1519 1520 1521 1522 1523 1523 1523 1523 1523 1523 1523 1523 1523 1523 1522 1522 1522 1522 1522 1521 1521 1521 1521 1521
1485 1486 1487 1488 1490 1492 1494 1496 1498 1501 1502 1504 1507 1509 1511 1511 1513 1514 1514 1515 1517 1517 1518 1519 1519 1520 1520 1521 1521 1520 1520 1520 1520 1520 1520 1520 1520 1519 1519 1519 1519 1518 1518
1484 1485 1486 1487 1489 1491 1492 1494 1496 1497 1499 1500 1502 1505 1507 1508 1509 1510 1511 1512 1513 1514 1514 1514 1516 1516 1517 1517 1518 1517 1518 1518 1518 1517 1517 1518 1518 1517 1517 1517 1516 1516 1516
1484 1485 1486 1487 1488 1489 1491 1492 1493 1494 1495 1496 1498 1500 1501 1504 1505 1506 1507 1509 1509 1510 1510 1511 1511 1512 1513 1513 1514 1515 1515 1515 1515 1515 1515 1516 1515 1515 1515 1515 1514 1514 1514
1483 1484 1485 1485 1486 1487 1488 1490 1491 1491 1492 1493 1495 1496 1497 1499 1501 1503 1505 1505 1506 1507 1507 1507 1507 1508 1509 1510 1510 1512 1512 1512 1512 1512 1512 1513 1513 1513 1513 1513 1512 1512 1512
1482 1483 1484 1484 1485 1486 1486 1487 1488 1489 1490 1491 1492 1493 1495 1496 1497 1499 1501 1503 1504 1504 1504 1503 1504 1505 1506 1506 1507 1508 1509 1509 1509 1509 1509 1510 1511 1511 1511 1511 1510 1510 1510
1481 1482 1483 1483 1484 1484 1485 1485 1486 1487 1488 1488 1489 1490 1492 1493 1494 1495 1497 1499 1500 1501 1501 1501 1502 1502 1503 1504 1504 1505 1505 1505 1505 1506 1506 1507 1508 1508 1509 1508 1508 1508 1508
1480 1481 1481 1481 1483 1483 1483 1483 1484 1485 1486 1487 1487 1487 1489 1490 1491 1492 1494 1495 1496 1497 1497 1497 1498 1499 1500 1500 1501 1501 1502 1502 1502 1502 1503 1504 1505 1506 1506 1506 1506 1506 1506
1479 1479 1479 1480 1481 1481 1481 1482 1482 1483 1484 1484 1484 1485 1486 1487 1489 1490 1491 1492 1492 1493 1493 1494 1495 1496 1497 1497 1498 1498 1498 1499 1499 1499 1500 1501 1502 1503 1503 1504 1504 1503 1503
1477 1477 1478 1478 1479 1480 1480 1481 1482 1482 1482 1482 1482 1482 1483 1484 1485 1486 1487 1488 1488 1489 1489 1490 1491 1491 1492 1493 1495 1495 1495 1495 1496 1496 1497 1498 1499 1499 1500 1500 1501 1501 1501
1475 1476 1476 1476 1476 1477 1477 1479 1480 1480 1480 1480 1480 1480 1481 1481 1483 1483 1484 1484 1484 1483 1484 1485 1486 1486 1488 1489 1490 1491 1491 1492 1492 1493 1494 1495 1495 1496 1496 1497 1498 1498 1498